User: anonymous   Login
Location: Aurora Center
(43.5271°N, 98.5894°W)
Time: 03:46:06
(UTC-05:00)
Language:

S-56A Canister/Altair - Orbit

View from above orbital plane
View from above orbital plane
View from above satellite
View from above satellite

Ground track
Ground track

The orbit data is extracted from the following two-line orbital elements,

1 00082U 61004B   24196.86901923  .00001036  00000-0  91666-3 0  9992
2 00082  38.8538  86.8576 1164575  68.0401 303.9839 12.26830837990514
Epoch (UTC): 14 July 2024 20:51:23
Eccentricity: 0.1164575
inclination: 38.8538°
perigee height: 638 km
apogee height: 2488 km
right ascension of ascending node: 86.8576°
argument of perigee: 68.0401°
revolutions per day: 12.26830837
mean anomaly at epoch: 303.9839°
orbit number at epoch: 99051

The dashed part of the orbit path shows where the satellite is in the earth's shadow,  

DLR